CW9792 Weather Reports


time (UTC)temp
C
wind
direction
speed
KPH
gust
KPH
rain 1hr
cm
rain 24hr
cm
rain mn
cm
humidity
%
barometer
mb
20260510202014 23 355 0.0 0.0 0.00 0.00 0.00 36 1015.5
20260510201515 23 355 0.0 0.0 0.00 0.00 0.00 37 1015.6
20260510201018 23 342 0.0 6.4 0.00 0.00 0.00 40 1015.5
20260510200515 23 355 0.0 6.4 0.00 0.00 0.00 37 1015.5
20260510200015 23 266 0.0 0.0 0.00 0.00 0.00 40 1015.4
20260510195513 23 284 0.0 0.0 0.00 0.00 0.00 38 1015.4
20260510195013 23 284 0.0 1.6 0.00 0.00 0.00 38 1015.5
20260510194513 23 239 0.0 1.6 0.00 0.00 0.00 40 1015.4
20260510194013 23 287 0.0 0.0 0.00 0.00 0.00 40 1015.4
20260510193512 22 293 0.0 0.0 0.00 0.00 0.00 39 1015.5
20260510193015 22 293 0.0 0.0 0.00 0.00 0.00 40 1015.5
20260510192512 23 302 0.0 0.0 0.00 0.00 0.00 42 1015.4
20260510192012 23 288 0.0 0.0 0.00 0.00 0.00 39 1015.4
20260510191511 22 355 0.0 0.0 0.00 0.00 0.00 38 1015.4
20260510191012 22 285 0.0 0.0 0.00 0.00 0.00 38 1015.4
20260510190516 22 292 0.0 0.0 0.00 0.00 0.00 37 1015.5
20260510190016 22 331 0.0 0.0 0.00 0.00 0.00 38 1015.5
20260510185511 22 288 0.0 0.0 0.00 0.00 0.00 38 1015.5
20260510185013 22 288 0.0 0.0 0.00 0.00 0.00 39 1015.5
20260510184510 22 317 0.0 0.0 0.00 0.00 0.00 40 1015.5
20260510184010 23 290 0.0 0.0 0.00 0.00 0.00 40 1015.5
20260510183510 22 284 0.0 0.0 0.00 0.00 0.00 39 1015.4
20260510183010 22 295 0.0 0.0 0.00 0.00 0.00 42 1015.4
20260510182509 22 256 0.0 0.0 0.00 0.00 0.00 41 1015.4
20260510182010 22 289 0.0 0.0 0.00 0.00 0.00 40 1015.5
20260510181511 22 311 0.0 0.0 0.00 0.00 0.00 41 1015.5
20260510181009 22 295 0.0 0.0 0.00 0.00 0.00 41 1015.5
20260510180508 22 317 0.0 0.0 0.00 0.00 0.00 40 1015.6
20260510180008 22 339 0.0 0.0 0.00 0.00 0.00 39 1015.6
20260510175507 23 275 0.0 0.0 0.00 0.00 0.00 39 1015.7
20260510175006 23 281 0.0 0.0 0.00 0.00 0.00 42 1015.7
20260510174507 22 344 0.0 8.0 0.00 0.00 0.00 39 1015.6
20260510174007 22 297 0.0 8.0 0.00 0.00 0.00 41 1015.6
20260510173506 22 261 0.0 0.0 0.00 0.00 0.00 40 1015.6
20260510173006 22 292 0.0 0.0 0.00 0.00 0.00 42 1015.6
20260510172505 22 342 0.0 0.0 0.00 0.00 0.00 41 1015.6
20260510172006 22 355 0.0 0.0 0.00 0.00 0.00 40 1015.7
20260510171505 22 344 0.0 0.0 0.00 0.00 0.00 41 1015.8
20260510171005 22 313 0.0 0.0 0.00 0.00 0.00 40 1015.8
20260510170505 22 342 0.0 0.0 0.00 0.00 0.00 40 1015.7
20260510170004 22 319 0.0 0.0 0.00 0.00 0.00 41 1015.7
20260510165504 22 355 0.0 8.0 0.00 0.00 0.00 43 1015.8
20260510165004 22 294 0.0 8.0 0.00 0.00 0.00 42 1016.0
20260510164510 22 322 0.0 0.0 0.00 0.00 0.00 43 1016.0
20260510164002 22 292 0.0 0.0 0.00 0.00 0.00 41 1015.9
20260510163502 22 306 0.0 0.0 0.00 0.00 0.00 43 1015.9
20260510163101 22 294 0.0 0.0 0.00 0.00 0.00 45 1015.8
20260510162601 22 286 0.0 0.0 0.00 0.00 0.00 42 1015.7
20260510162058 22 335 0.0 0.0 0.00 0.00 0.00 43 1015.5
20260510161557 22 297 0.0 0.0 0.00 0.00 0.00 43 1015.3
20260510161057 22 342 0.0 0.0 0.00 0.00 0.00 43 1015.2
20260510160556 22 297 0.0 1.6 0.00 0.00 0.00 43 1015.1
20260510160056 21 311 0.0 4.8 0.00 0.00 0.00 44 1015.1
20260510155555 22 349 0.0 4.8 0.00 0.00 0.00 44 1015.1
20260510155057 21 297 0.0 0.0 0.00 0.00 0.00 45 1015.1
20260510154557 21 293 0.0 0.0 0.00 0.00 0.00 44 1015.2
20260510154052 21 344 0.0 0.0 0.00 0.00 0.00 44 1015.2
20260510153553 21 355 0.0 0.0 0.00 0.00 0.00 44 1015.2
20260510153052 21 296 0.0 0.0 0.00 0.00 0.00 47 1015.2
20260510152551 21 288 0.0 0.0 0.00 0.00 0.00 46 1015.3
20260510152052 21 329 0.0 0.0 0.00 0.00 0.00 47 1015.1
20260510151557 21 333 0.0 0.0 0.00 0.00 0.00 49 1015.1
20260510151049 20 292 0.0 0.0 0.00 0.00 0.00 47 1015.0
20260510150549 20 355 0.0 0.0 0.00 0.00 0.00 50 1015.0
20260510150049 20 293 0.0 0.0 0.00 0.00 0.00 48 1015.1
20260510145547 20 355 0.0 0.0 0.00 0.00 0.00 48 1015.0
20260510145046 20 343 0.0 0.0 0.00 0.00 0.00 49 1015.1
20260510144601 20 294 0.0 0.0 0.00 0.00 0.00 50 1015.1
20260510144045 20 294 0.0 0.0 0.00 0.00 0.00 51 1015.1
20260510143544 20 287 0.0 0.0 0.00 0.00 0.00 50 1015.1
20260510143055 19 295 0.0 0.0 0.00 0.00 0.00 52 1015.1
20260510142543 19 280 0.0 0.0 0.00 0.00 0.00 50 1015.0
20260510142045 19 240 0.0 0.0 0.00 0.00 0.00 50 1015.0
20260510141543 19 269 0.0 0.0 0.00 0.00 0.00 50 1015.1
20260510141043 19 292 0.0 0.0 0.00 0.00 0.00 50 1015.1
20260510140541 19 270 0.0 0.0 0.00 0.00 0.00 51 1015.1
20260510140041 19 277 0.0 0.0 0.00 0.00 0.00 52 1015.0
20260510135539 18 248 0.0 0.0 0.00 0.00 0.00 53 1015.0
20260510135038 18 282 0.0 0.0 0.00 0.00 0.00 53 1015.0
20260510134538 18 245 0.0 0.0 0.00 0.00 0.00 53 1014.9
20260510134037 18 288 0.0 3.2 0.00 0.00 0.00 53 1014.9
20260510133537 18 294 0.0 3.2 0.00 0.00 0.00 53 1014.9
20260510133035 18 220 0.0 0.0 0.00 0.00 0.00 52 1014.7
20260510132535 17 267 0.0 0.0 0.00 0.00 0.00 52 1014.6
20260510132038 18 269 0.0 0.0 0.00 0.00 0.00 53 1014.5
20260510131544 17 250 0.0 0.0 0.00 0.00 0.00 53 1014.4
20260510131039 17 250 0.0 0.0 0.00 0.00 0.00 52 1014.5
20260510130534 17 215 0.0 0.0 0.00 0.00 0.00 54 1014.5
20260510130033 17 223 0.0 0.0 0.00 0.00 0.00 53 1014.4
20260510125534 17 229 0.0 0.0 0.00 0.00 0.00 53 1014.1
20260510125030 17 232 0.0 0.0 0.00 0.00 0.00 55 1014.1
20260510124533 16 191 0.0 0.0 0.00 0.00 0.00 56 1014.1
20260510124030 16 194 0.0 0.0 0.00 0.00 0.00 56 1014.0
20260510123530 16 196 0.0 0.0 0.00 0.00 0.00 57 1013.9
20260510123028 16 205 0.0 0.0 0.00 0.00 0.00 58 1013.9
20260510122527 15 219 0.0 0.0 0.00 0.00 0.00 59 1013.7
20260510122027 15 204 0.0 0.0 0.00 0.00 0.00 59 1013.6
20260510121530 15 206 0.0 0.0 0.00 0.00 0.00 59 1013.5
20260510121030 15 198 0.0 0.0 0.00 0.00 0.00 59 1013.4
20260510120525 15 192 0.0 0.0 0.00 0.00 0.00 58 1013.3
20260510120029 15 188 0.0 0.0 0.00 0.00 0.00 59 1013.2
20260510115524 15 126 0.0 0.0 0.00 0.00 0.00 59 1013.2
20260510115023 15 119 0.0 0.0 0.00 0.00 0.00 59 1013.1
20260510114522 15 118 0.0 0.0 0.00 0.00 0.00 58 1013.0
20260510114024 15 118 0.0 0.0 0.00 0.00 0.00 58 1012.9
20260510113521 15 118 0.0 0.0 0.00 0.00 0.00 57 1012.9
20260510113021 15 118 0.0 0.0 0.00 0.00 0.00 57 1012.9
20260510112522 15 118 0.0 0.0 0.00 0.00 0.00 56 1012.9
20260510112018 15 118 0.0 0.0 0.00 0.00 0.00 55 1012.8
20260510111517 15 118 0.0 1.6 0.00 0.00 0.00 55 1012.8
20260510111015 15 183 0.0 1.6 0.00 0.00 0.00 54 1012.6
20260510110514 16 211 0.0 0.0 0.00 0.00 0.00 53 1012.6
20260510110016 16 211 0.0 0.0 0.00 0.00 0.00 52 1012.6
20260510105514 16 229 0.0 0.0 0.00 0.00 0.00 51 1012.4
20260510105018 16 238 0.0 0.0 0.00 0.00 0.00 51 1012.5
20260510104512 16 238 0.0 0.0 0.00 0.00 0.00 50 1012.5
20260510104012 16 238 0.0 0.0 0.00 0.00 0.00 50 1012.4
20260510103512 16 240 0.0 0.0 0.00 0.00 0.00 50 1012.5
20260510103012 16 240 0.0 0.0 0.00 0.00 0.00 50 1012.5
20260510102512 16 240 0.0 0.0 0.00 0.00 0.00 49 1012.5
20260510102015 16 240 0.0 0.0 0.00 0.00 0.00 49 1012.5
20260510101511 16 240 0.0 0.0 0.00 0.00 0.00 49 1012.5
20260510101014 16 236 0.0 0.0 0.00 0.00 0.00 49 1012.5
20260510100512 16 236 0.0 0.0 0.00 0.00 0.00 49 1012.4
20260510100010 16 231 0.0 0.0 0.00 0.00 0.00 49 1012.5
20260510095513 16 240 0.0 0.0 0.00 0.00 0.00 48 1012.4
20260510095013 16 228 0.0 0.0 0.00 0.00 0.00 48 1012.4
20260510094509 17 250 0.0 0.0 0.00 0.00 0.00 46 1012.4
20260510094009 17 250 0.0 0.0 0.00 0.00 0.00 46 1012.3
20260510093508 17 250 0.0 0.0 0.00 0.00 0.00 46 1012.4
20260510093008 17 250 0.0 0.0 0.00 0.00 0.00 46 1012.3
20260510092508 17 250 0.0 0.0 0.00 0.00 0.00 46 1012.2
20260510092006 17 243 0.0 0.0 0.00 0.00 0.00 47 1012.1
20260510091508 17 266 0.0 0.0 0.00 0.00 0.00 46 1012.1
20260510091008 17 230 0.0 0.0 0.00 0.00 0.00 46 1011.7
20260510090505 17 230 0.0 0.0 0.00 0.00 0.00 46 1011.6
20260510090006 17 221 0.0 0.0 0.00 0.00 0.00 45 1011.6
20260510085504 18 232 0.0 0.0 0.00 0.00 0.00 44 1011.5
20260510085003 18 259 0.0 0.0 0.00 0.00 0.00 43 1011.5
20260510084506 18 241 0.0 0.0 0.00 0.00 0.00 43 1011.4
20260510084003 18 255 0.0 0.0 0.00 0.00 0.00 44 1011.4
20260510083503 18 232 0.0 0.0 0.00 0.00 0.00 44 1011.4
20260510083002 18 246 0.0 0.0 0.00 0.00 0.00 45 1011.5
20260510082503 17 232 0.0 0.0 0.00 0.00 0.00 46 1011.4
20260510082002 17 242 0.0 0.0 0.00 0.00 0.00 46 1011.4
20260510081503 17 226 0.0 0.0 0.00 0.00 0.00 46 1011.4
20260510081002 17 228 0.0 0.0 0.00 0.00 0.00 46 1011.4
20260510080501 17 252 0.0 0.0 0.00 0.00 0.00 46 1011.5
20260510080001 17 228 0.0 0.0 0.00 0.00 0.00 46 1011.4
20260510075501 17 244 0.0 0.0 0.00 0.00 0.00 46 1011.3
20260510075100 17 222 0.0 0.0 0.00 0.00 0.00 46 1011.3
20260510074600 17 236 0.0 0.0 0.00 0.00 0.00 47 1011.4
20260510074103 17 238 0.0 0.0 0.00 0.00 0.00 48 1011.2
20260510073558 17 238 0.0 0.0 0.00 0.00 0.00 49 1011.1
20260510073116 16 238 0.0 0.0 0.00 0.00 0.00 49 1011.1
20260510072558 16 210 0.0 0.0 0.00 0.00 0.00 49 1011.1
20260510072059 16 209 0.0 0.0 0.00 0.00 0.00 49 1011.0
20260510071559 17 224 0.0 0.0 0.00 0.00 0.00 49 1011.0
20260510071058 16 216 0.0 0.0 0.00 0.00 0.00 49 1011.1
20260510070558 16 221 0.0 0.0 0.00 0.00 0.00 49 1011.1
20260510070106 16 213 0.0 0.0 0.00 0.00 0.00 49 1011.0
20260510065558 16 207 0.0 0.0 0.00 0.00 0.00 49 1011.0
20260510065057 17 209 0.0 0.0 0.00 0.00 0.00 49 1011.0
20260510064635 17 208 0.0 0.0 0.00 0.00 0.00 49 1011.1
20260510064056 17 227 0.0 0.0 0.00 0.00 0.00 49 1011.1
20260510063558 17 218 0.0 0.0 0.00 0.00 0.00 48 1011.0
20260510063057 17 224 0.0 0.0 0.00 0.00 0.00 48 1010.9
20260510062557 17 221 0.0 0.0 0.00 0.00 0.00 48 1011.0
20260510062056 17 217 0.0 0.0 0.00 0.00 0.00 47 1010.9
20260510061555 17 229 0.0 0.0 0.00 0.00 0.00 47 1010.9
20260510061055 18 229 0.0 0.0 0.00 0.00 0.00 46 1011.0
20260510060600 18 235 0.0 0.0 0.00 0.00 0.00 46 1011.1
20260510060056 18 236 0.0 0.0 0.00 0.00 0.00 46 1011.0
20260510055554 18 240 0.0 0.0 0.00 0.00 0.00 46 1011.1
20260510055053 18 247 0.0 0.0 0.00 0.00 0.00 46 1011.0
20260510054554 18 249 0.0 0.0 0.00 0.00 0.00 46 1011.1
20260510054052 18 255 0.0 0.0 0.00 0.00 0.00 47 1011.2
20260510053550 17 238 0.0 0.0 0.00 0.00 0.00 48 1011.2
20260510053049 17 238 0.0 0.0 0.00 0.00 0.00 48 1011.1
20260510052550 17 232 0.0 0.0 0.00 0.00 0.00 49 1011.2
20260510052050 17 236 0.0 0.0 0.00 0.00 0.00 49 1011.2
20260510051649 17 237 0.0 0.0 0.00 0.00 0.00 49 1011.2
20260510051048 17 232 0.0 0.0 0.00 0.00 0.00 48 1011.2
20260510050548 17 235 0.0 0.0 0.00 0.00 0.00 49 1011.2
20260510050052 17 236 0.0 0.0 0.00 0.00 0.00 49 1011.2
20260510045546 17 232 0.0 0.0 0.00 0.00 0.00 50 1011.2
20260510045045 17 232 0.0 0.0 0.00 0.00 0.00 50 1011.2
20260510044545 17 240 0.0 0.0 0.00 0.00 0.00 50 1011.2
20260510044042 16 225 0.0 0.0 0.00 0.00 0.00 52 1011.1
20260510043543 16 215 0.0 0.0 0.00 0.00 0.00 53 1011.1
20260510043044 16 207 0.0 0.0 0.00 0.00 0.00 53 1011.1
20260510042544 16 210 0.0 0.0 0.00 0.00 0.00 53 1011.2
20260510042040 16 197 0.0 0.0 0.00 0.00 0.00 53 1011.1
20260510041541 16 199 0.0 0.0 0.00 0.00 0.00 53 1011.1
20260510041040 16 202 0.0 0.0 0.00 0.00 0.00 52 1011.1
20260510040539 16 202 0.0 0.0 0.00 0.00 0.00 52 1011.1
20260510040045 16 223 0.0 0.0 0.00 0.00 0.00 52 1011.1
20260510035537 16 218 0.0 0.0 0.00 0.00 0.00 54 1011.1
20260510035041 16 198 0.0 0.0 0.00 0.00 0.00 55 1011.1
20260510034547 16 182 0.0 0.0 0.00 0.00 0.00 55 1011.1
20260510034037 16 182 0.0 0.0 0.00 0.00 0.00 55 1011.2
20260510033543 16 182 0.0 0.0 0.00 0.00 0.00 55 1011.2
20260510033040 16 182 0.0 0.0 0.00 0.00 0.00 55 1011.2
20260510032536 16 184 0.0 0.0 0.00 0.00 0.00 55 1011.2
20260510032036 16 184 0.0 0.0 0.00 0.00 0.00 54 1011.3
20260510031536 16 184 0.0 0.0 0.00 0.00 0.00 54 1011.3
20260510031036 16 184 0.0 0.0 0.00 0.00 0.00 54 1011.3
20260510030536 16 184 0.0 0.0 0.00 0.00 0.00 54 1011.2
20260510030035 16 186 0.0 0.0 0.00 0.00 0.00 53 1011.2
20260510025536 16 186 0.0 0.0 0.00 0.00 0.00 53 1011.3
20260510025035 17 187 0.0 0.0 0.00 0.00 0.00 52 1011.3
20260510024534 17 188 0.0 0.0 0.00 0.00 0.00 51 1011.2
20260510024033 17 188 0.0 0.0 0.00 0.00 0.00 50 1011.1
20260510023532 17 194 0.0 0.0 0.00 0.00 0.00 49 1011.1
20260510023032 17 194 0.0 0.0 0.00 0.00 0.00 48 1011.0
20260510022532 18 194 0.0 0.0 0.00 0.00 0.00 48 1011.0
20260510022031 18 194 0.0 0.0 0.00 0.00 0.00 48 1010.9
20260510021532 18 194 0.0 0.0 0.00 0.00 0.00 48 1010.9
20260510021028 18 194 0.0 0.0 0.00 0.00 0.00 47 1010.7
20260510020528 18 194 0.0 0.0 0.00 0.00 0.00 47 1010.7
20260510020030 18 194 0.0 0.0 0.00 0.00 0.00 46 1010.6
20260510015528 19 194 0.0 0.0 0.00 0.00 0.00 45 1010.5
20260510015025 20 232 0.0 0.0 0.00 0.00 0.00 44 1010.5
20260510014524 20 232 0.0 0.0 0.00 0.00 0.00 43 1010.4
20260510014024 20 232 0.0 0.0 0.00 0.00 0.00 42 1010.3
20260510013526 20 232 0.0 0.0 0.00 0.00 0.00 42 1010.2
20260510013022 20 232 0.0 0.0 0.00 0.00 0.00 41 1010.1
20260510012521 20 232 0.0 0.0 0.00 0.00 0.00 40 1010.0
20260510012023 20 232 0.0 0.0 0.00 0.00 0.00 40 1009.9
20260510011521 20 232 0.0 0.0 0.00 0.00 0.00 40 1009.8
20260510011020 20 232 0.0 0.0 0.00 0.00 0.00 40 1009.8
20260510010520 20 232 0.0 0.0 0.00 0.00 0.00 40 1009.7
20260510010021 21 232 0.0 0.0 0.00 0.00 0.00 39 1009.7
20260510005521 21 232 0.0 0.0 0.00 0.00 0.00 39 1009.6
20260510005022 21 232 0.0 0.0 0.00 0.00 0.00 38 1009.4
20260510004520 21 232 0.0 0.0 0.00 0.00 0.00 38 1009.4
20260510004019 21 232 0.0 0.0 0.00 0.00 0.00 37 1009.3
20260510003520 21 232 0.0 0.0 0.00 0.00 0.00 37 1009.2
20260510003021 21 232 0.0 0.0 0.00 0.00 0.00 37 1009.2
20260510002521 22 227 0.0 0.0 0.00 0.00 0.00 36 1009.1
20260510002019 22 226 0.0 0.0 0.00 0.00 0.00 36 1009.0
20260510001519 22 228 0.0 0.0 0.00 0.00 0.00 36 1009.0
20260510001019 22 224 0.0 0.0 0.00 0.00 0.00 36 1008.9
20260510000519 22 232 0.0 0.0 0.00 0.00 0.00 35 1008.9
20260510000020 22 242 0.0 0.0 0.00 0.00 0.00 35 1008.9
20260509235519 22 229 0.0 0.0 0.00 0.00 0.00 35 1008.9
20260509235017 23 223 0.0 0.0 0.00 0.00 0.00 34 1008.8
20260509234518 23 209 0.0 0.0 0.00 0.00 0.00 33 1008.7
20260509234018 23 227 0.0 0.0 0.00 0.00 0.00 32 1008.8
20260509233517 23 215 0.0 0.0 0.00 0.00 0.00 30 1008.7
20260509233020 23 246 0.0 0.0 0.00 0.00 0.00 30 1008.7
20260509232516 23 238 0.0 0.0 0.00 0.00 0.00 31 1008.8
20260509232016 23 277 0.0 0.0 0.00 0.00 0.00 29 1008.8
20260509231517 23 267 0.0 0.0 0.00 0.00 0.00 29 1008.8
20260509231016 23 280 0.0 0.0 0.00 0.00 0.00 29 1008.8
20260509230516 23 256 0.0 0.0 0.00 0.00 0.00 28 1008.8
20260509230016 23 265 0.0 0.0 0.00 0.00 0.00 29 1008.7
20260509225516 23 263 0.0 0.0 0.00 0.00 0.00 31 1008.6
20260509225019 23 260 0.0 0.0 0.00 0.00 0.00 30 1008.6
20260509224515 24 250 0.0 0.0 0.00 0.00 0.00 29 1008.5
20260509224015 24 228 0.0 0.0 0.00 0.00 0.00 30 1008.5
20260509223514 24 281 0.0 0.0 0.00 0.00 0.00 28 1008.5
20260509223015 24 285 0.0 0.0 0.00 0.00 0.00 30 1008.5
20260509222514 24 284 0.0 0.0 0.00 0.00 0.00 31 1008.5
20260509222014 24 284 0.0 3.2 0.00 0.00 0.00 28 1008.5
20260509221514 24 215 0.0 3.2 0.00 0.00 0.00 28 1008.4
20260509221014 24 262 0.0 0.0 0.00 0.00 0.00 29 1008.4
20260509220513 24 201 0.0 0.0 0.00 0.00 0.00 30 1008.5
20260509220014 24 241 0.0 0.0 0.00 0.00 0.00 29 1008.5
20260509215517 24 273 0.0 0.0 0.00 0.00 0.00 28 1008.4
20260509215013 24 240 0.0 0.0 0.00 0.00 0.00 28 1008.5
20260509214513 24 226 0.0 0.0 0.00 0.00 0.00 28 1008.4
20260509214015 24 290 0.0 0.0 0.00 0.00 0.00 27 1008.5
20260509213512 24 237 0.0 1.6 0.00 0.00 0.00 28 1008.5
20260509213014 24 262 0.0 1.6 0.00 0.00 0.00 26 1008.5
20260509212510 24 238 0.0 0.0 0.00 0.00 0.00 26 1008.5
20260509212013 24 293 0.0 0.0 0.00 0.00 0.00 25 1008.5
20260509211610 24 245 0.0 1.6 0.00 0.00 0.00 30 1008.6
20260509211010 24 213 0.0 1.6 0.00 0.00 0.00 31 1008.5
20260509210511 24 275 0.0 0.0 0.00 0.00 0.00 30 1008.6
20260509210010 23 277 0.0 0.0 0.00 0.00 0.00 29 1008.6
20260509205509 24 253 0.0 0.0 0.00 0.00 0.00 29 1008.6
20260509205008 24 240 0.0 0.0 0.00 0.00 0.00 30 1008.6
20260509204512 24 252 0.0 0.0 0.00 0.00 0.00 32 1008.7
20260509204008 24 199 0.0 8.0 0.00 0.00 0.00 31 1008.7
20260509203511 23 267 1.6 8.0 0.00 0.00 0.00 32 1008.7
20260509203022 23 294 0.0 0.0 0.00 0.00 0.00 29 1008.7
20260509202507 23 297 0.0 0.0 0.00 0.00 0.00 33 1008.8